Skip Page Navigation
NASA JPL Caltech
NASA Logo - Jet Propulsion Laboratory + View the NASA Portal
+ Center for Near-Earth Object Studies
JPL Home Earth Solar System Stars & Galaxies Technology
JPL Solar System Dynamics
BODIES ORBITS EPHEMERIDES TOOLS PHYSICAL DATA DISCOVERY FAQ SITE MAP
IMPORTANT: The SSD Announcement email list is now available. Major changes are coming in the near future, including possible hostname and/or URL changes. To be notified of such changes, subscribe to this email list.

Please visit this page for more details.


JPL Small-Body Database Browser
Search: [ help ]  
34566 (2000 SE294)
Classification: Main-belt Asteroid          SPK-ID: 2034566
Ephemeris | Orbit Diagram | Orbital Elements | Mission Design | Physical Parameters | Discovery Circumstances | Close-Approach Data ]

[ show orbit diagram ]
Orbital Elements at Epoch 2459000.5 (2020-May-31.0) TDB
Reference: JPL 24 (heliocentric ecliptic J2000)
 Element Value Uncertainty (1-sigma)   Units 
e .139166807566384 4.0698e-08  
a 2.659411470590009 1.1598e-08 au
q 2.289309666222575 1.0854e-07 au
i 15.6286337296821 5.7607e-06 deg
node 26.89816932626611 1.3806e-05 deg
peri 116.156403343009 2.53e-05 deg
M 113.6254326288565 1.8925e-05 deg
tp 2458500.523280879335
(2019-Jan-17.02328088)
8.3221e-05 TDB
period 1584.078623237106
4.34
1.0363e-05
2.837e-08
d
yr
n .2272614469503607 1.4867e-09 deg/d
Q 3.029513274957443 1.3212e-08 au
  Orbit Determination Parameters
   # obs. used (total)      1449  
   data-arc span      14872 days (40.72 yr)  
   first obs. used      1978-10-07  
   last obs. used      2019-06-26  
   planetary ephem.      DE431  
   SB-pert. ephem.      SB431-N16  
   condition code      0  
   norm. resid. RMS      .50712  
   source      ORB  
   producer      Otto Matic  
   solution date      2020-Feb-23 03:30:54  

Additional Information
 Earth MOID = 1.34383 au 
 Jupiter MOID = 2.0593 au 
 T_jup = 3.320 
[ show covariance matrix ]

Ephemeris | Orbit Diagram | Orbital Elements | Mission Design | Physical Parameters | Discovery Circumstances | Close-Approach Data ]

Physical Parameter Table
Parameter Symbol Value Units Sigma Reference Notes
absolute magnitude H 13.8   n/a MPO474199  
diameter diameter 6.247 km 0.062 urn:nasa:pds:neowise_diameters_albedos::2.0[mainbelt] (http://adsabs.harvard.edu/abs/2011ApJ...741...68M)  
geometric albedo albedo 0.155   0.028 urn:nasa:pds:neowise_diameters_albedos::2.0[mainbelt] (http://adsabs.harvard.edu/abs/2011ApJ...741...68M)  

34566 (2000 SE294)          Discovered 2000-Sep-27 by LINEAR at Socorro
Reference: 20020128/Numbers.arcLast Updated: 2004-04-19

[ show close-approach data ]
Alternate Designations
 2000 SE294 = 1978 TX4 = 1978 WN21 = 1978 WV21 = 1980 DG1 
Ephemeris | Orbit Diagram | Orbital Elements | Mission Design | Physical Parameters | Discovery Circumstances | Close-Approach Data ]
ABOUT SSD CREDITS/AWARDS PRIVACY/COPYRIGHT GLOSSARY LINKS
FirstGov 2020-Feb-25 07:32 UT
(server date/time)  
NASA Home Page
Site Manager:   Ryan S. Park
Webmaster  Alan B. Chamberlin